NOAA 16 DEB, 41305

Orbit data source: Space-Track

NOAA 16 DEB, 41305 is space debris in SSO originally from a launch on Thu, 21 Sep 2000 UTC launched from the Air Force Western Test Range (AFWTR). Debris objects in space refer to the collection of defunct objects orbiting the Earth. Examples of debris include non-operational satellites, rocket bodies, and fragments generated from explosions, collisions, or faulty payload assembly.

Loading next visibility...
Identifier
41305, 2000-055HH
Orbit
SSO
Country
Flag of USUS
Related business
Manufacturer
Unknown
Mission
Spacecraft
Bus & Motor
Unknown
Mass
Unknown
Launch date (UTC)
2000-09-21 (25 years ago)
Launch vehicle
Unknown
Launch site
Air Force Western Test Range (AFWTR)
Object type
Payload
Rocket body
Debris
Shape & HBR
Unknown shape, 0.1 m
Radar Cross Section
Small (<0.1 m²)

Expand to show TLE details & history
Last TLE update: 4 days ago

TLE from 4 days ago
0 NOAA 16 DEB
1 41305U 00055HH  25300.43216893  .00003974  00000-0  20036-2 0  9995
2 41305  98.7186 292.1728 0033568 207.0371 152.9056 14.16563451504542
Epoch: 2025-10-27T10:22Z
TLE epoch observation values (Epoch: 2025-10-27T10:22:19.395Z)
Latitude
-0.00003°
Longitude
100.55789°
Altitude
861.491 km
Speed
7.411 km/s
True Right ascension
19h 28m 41s
True Declination
0° 00' 00"
Sunlit
Object was in daylight at epoch
Visualization orbit readout
Latitude
Unknown
Longitude
Unknown
Altitude
Unknown
Speed
Unknown
Apparent Right ascension
Unknown
Apparent Declination
Unknown
Sunlit
N/A
Visualization observer readout
Local Sidereal Time
11:52:26
Azimuth
Unknown
Elevation
Unknown
Doppler factor
Unknown
Orbital elements
Apogee altitude
858.372 km
Perigee altitude
809.952 km
Semi-major axis
7,212.299 km
Eccentricity
0.00336
Inclination
98.7186°
RAAN
292.1728°
Arg. of periapsis
207.0371°
True anomaly
153.08014°
Mean anomaly
152.9056°
Eccentric anomaly
152.99294°
Mean motion
3.5435 °/min
Orbital period
101.59 mins
BSTAR
0.0020036
Loading maneuver chart data...
Computing Atmospheric mass density...
Loading historical data...
Loading historical data...
Loading historical data...
Loading historical data...
Loading historical data...
Loading historical data...
Loading historical data...

Documentation

Showing up to 5 results
|